Location: Kawakawa
(35.3830°S, 174.0670°E)
Time: 09:11:55
(UTC+13:00)

ARGOS - Pass Details

Date: 24 January 2019
Orbit: 821 x 834 km, 98.5° (Epoch: 21 February)

Event Time Altitude Azimuth Distance (km) Brightness Sun altitude
Rises 21:33:19 0° 149° (SSE) 3,384 6.4 -10.8°
Reaches altitude 10° 21:36:22 10° 131° (SE) 2,442 5.5 -11.3°
Maximum altitude 21:40:11 19° 86° (E) 1,859 4.5 -11.9°
Enters shadow 21:42:01 17° 61° (ENE) 2,003 4.5 -12.3°
